Regional Weather Roundup
Issued by NWS

Home | Current Version | Previous Version | Text Only | Print | Product List | Glossary On
Versions: 1 2 3 4 5 6 7 8 9 10 11 12 13 14 15 16 17 18 19 20 21 22 23 24 25 26 27 28 29 30 31 32 33 34 35 36 37 38 39 40 41 42 43 44 45 46 47 48 49
000
ASUS43 KLSX 061957
RWRMO

WEATHER SUMMARY FOR MISSOURI
NATIONAL WEATHER SERVICE SPRINGFIELD MO
300 PM CDT WED JUL 06 2022

NOTE: "FAIR" INDICATES FEW OR NO CLOUDS BELOW 12,000 FEET WITH NO
       SIGNIFICANT WEATHER AND/OR OBSTRUCTIONS TO VISIBILITY.
       CURRENT SKY AND/OR WEATHER CONDITIONS ARE NOT AVAILABLE FOR
       CHILLICOTHE AND FARMINGTON.

MOZ001>031-035>038-043-044-053-054-062100-
...NORTHERN AND WESTERN MISSOURI...

CITY           SKY/WX    TMP DP  RH WIND       PRES   REMARKS
KANSAS CTY INT PTSUNNY   87  73  62 E14       29.93F HX  94
LEE`S SUMMIT   MOSUNNY   90  75  61 VRB3      29.92S HX 100
CHILLICOTHE      N/A     86  78  77 NE8       29.94F HX  98

$$
MOZ066>068-077>081-088>096-101>105-062100-
...SOUTHWEST MISSOURI...

CITY           SKY/WX    TMP DP  RH WIND       PRES   REMARKS
SPRINGFIELD    PTSUNNY   96  66  37 SW5       29.94F HX  99
JOPLIN         SUNNY    101  69  35 S13G21    29.91F HX 107

$$
MOZ032>034-039>042-045>050-055>058-069>072-062100-
...CENTRAL MISSOURI...

CITY           SKY/WX    TMP DP  RH WIND       PRES   REMARKS
COLUMBIA       NOT AVBL
JEFFERSON CITY MOSUNNY   96  70  42 S7        29.90F HX 102
ROLLA          MOSUNNY   98  67  36 W7        29.95F HX 102
SEDALIA        MOSUNNY   96  72  45 S9        29.92F HX 104

$$
MOZ051-052-059>065-062100-
...EAST CENTRAL MISSOURI...

CITY           SKY/WX    TMP DP  RH WIND       PRES   REMARKS
ST LOUIS INTL  PTSUNNY   90  72  55 CALM      29.94F HX  97

$$
MOZ072>076-082>087-097>100-106>115-062100-
...SOUTH CENTRAL AND SOUTHEAST MISSOURI...

CITY           SKY/WX    TMP DP  RH WIND       PRES   REMARKS
CAPE GIRARDEAU MOSUNNY   97  74  47 W8        29.91F HX 108
POPLAR BLUFF   PTSUNNY   98  75  47 VRB3      29.92F HX 110
WEST PLAINS    MOSUNNY   97  65  34 VRB6      29.98F HX  99

$$



USA.gov is the U.S. government's official web portal to all federal, state and local government web resources and services.